#timestamp,LO_Frequency,Hit,StdDev 
1579035615.5,286047039.7,P
1579035635.4,286047042.8,P
1579035655.2,286047043.6,Y
1579035675.0,286047015.2,P
1579035675.9,286047015.2,N
1579035695.8,286047012.3,N
1579035715.6,286046997.3,N
1579035735.4,286046997.3,N
1579035755.3,286046994.0,N
1579035775.1,286046994.9,N
1579035795.9,286047004.5,N
1579035815.7,286047006.3,N
1579035835.5,286047010.0,N
1579035855.4,286047016.6,N
1579035875.2,286047017.6,N
1579035895.1,286047014.7,N
1579035896.0,286047014.7,N
1579035915.8,286047005.1,N
1579035935.6,286046997.0,N
1579035955.5,286046995.9,N
1579035975.3,286046994.3,N
1579035995.1,286046995.6,N
1579036015.9,286047000.3,N
1579036035.7,286046989.6,N
1579036055.6,286046984.5,N
1579036075.4,286046986.9,N
1579036095.2,286046992.8,N
1579036115.1,286046995.7,N
1579036116.0,286046995.7,N
1579036135.8,286046995.8,N
1579036155.6,286046999.3,N
1579036175.5,286046999.9,N
1579036195.3,286047004.3,N
1579036215.2,286047005.5,N
1579036235.9,286047006.5,N
1579036255.7,286046999.7,N
1579036275.6,286047005.9,N
1579036295.4,286047002.9,N
1579036315.2,286047000.4,N
1579036335.1,286046994.6,N
1579036336.0,286046994.6,N
1579036355.8,286046990.1,N
1579036375.7,286046998.7,N
1579036395.5,286047003.8,N
1579036415.3,286047003.8,N
1579036435.2,286047000.9,N
1579036455.0,286046997.5,N
1579036455.9,286046997.5,N
1579036475.8,286047003.4,N
1579036495.6,286047014.4,N
1579036515.4,286047008.4,N
1579036535.3,286047010.5,N
1579036555.1,286047007.4,N
1579036575.9,286046996.7,N
1579036595.7,286047000.8,N
1579036615.5,286047007.3,N
1579036635.4,286047019.7,Y
1579036655.2,286047019.2,P
1579036675.0,286047028.1,P
1579036675.9,286047028.1,N
1579036695.8,286047034.5,Y
1579036715.6,286047006.7,P
1579036735.5,286047005.2,N
1579036755.3,286047000.3,N
1579036775.1,286047002.5,N
1579036795.9,286047001.9,N
1579036815.7,286047010.7,N
1579036835.6,286047019.0,Y
1579036855.4,286047012.1,P
1579036875.2,286047010.8,P
1579036895.1,286047006.4,N
1579036896.0,286047006.4,N
1579036915.8,286047016.4,Y
1579036935.7,286046993.2,P
1579036955.5,286046986.8,N
1579036975.3,286046983.0,N
1579036995.2,286046985.3,N
1579037015.0,286046985.4,N
1579037015.9,286046985.4,N
1579037035.7,286046973.4,Y
1579037055.6,286046985.1,P
1579037075.4,286046984.0,P
1579037095.3,286046980.0,P
1579037115.1,286046982.4,Y
1579037116.0,286046982.4,P
1579037135.8,286046995.5,P
1579037155.7,286046992.3,N
1579037175.5,286047000.3,N
1579037195.4,286047008.5,N
1579037215.2,286047015.0,N
1579037235.0,286047011.4,N
1579037235.9,286047011.4,N
1579037255.8,286047014.6,N
1579037275.6,286047011.5,N
1579037295.4,286047016.7,N
1579037315.3,286047019.6,N
1579037335.1,286047021.6,N
1579037355.9,286047020.8,N
1579037375.7,286047023.1,N
1579037395.5,286047029.7,N
1579037415.4,286047029.2,N
1579037435.2,286047021.5,N
1579037455.0,286047020.9,N
1579037455.9,286047020.9,N
1579037475.8,286047015.2,N
1579037495.6,286047006.5,N
1579037515.5,286047002.5,N
1579037535.3,286047000.5,N
1579037555.1,286046996.6,N
1579037575.9,286046994.9,N
1579037595.7,286046986.4,N
1579037615.5,286046978.7,N
1579037635.4,286046970.3,N
1579037655.2,286046959.7,N
1579037675.1,286046957.8,N
1579037676.0,286046957.8,N
1579037695.8,286046957.0,N
1579037715.6,286046956.6,N
1579037735.5,286046958.9,N
1579037755.3,286046959.0,N
1579037775.1,286046948.7,N
1579037795.9,286046944.6,N
1579037815.7,286046940.1,N
1579037835.6,286046947.8,N
1579037855.4,286046962.1,N
1579037875.2,286046966.2,N
1579037895.1,286046980.7,N
1579037896.0,286046980.7,N
1579037915.8,286046989.8,N
1579037935.6,286046991.5,N
1579037955.5,286046994.0,N
1579037975.3,286046998.9,N
1579037995.2,286047001.0,N
1579038015.9,286047006.8,N
1579038035.7,286047010.0,N
1579038055.6,286047006.1,N
1579038075.4,286047000.4,N
1579038095.2,286046992.3,N
1579038115.1,286046990.8,N
1579038116.0,286046990.8,N
1579038135.8,286046984.3,N
1579038155.7,286046974.4,N
1579038175.5,286046967.6,N
1579038195.3,286046959.6,N
1579038215.2,286046951.8,N
1579038235.0,286046954.1,N
1579038235.9,286046954.1,N
1579038255.8,286046953.3,N
1579038275.6,286046951.2,N
1579038295.4,286046947.4,N
1579038315.3,286046946.9,N
1579038335.1,286046946.0,N
1579038355.8,286046944.2,N
1579038375.7,286046941.9,N
1579038395.5,286046938.3,N
1579038415.4,286046937.4,N
1579038435.2,286046940.6,N
1579038455.0,286046937.8,N
1579038455.9,286046937.8,N
1579038475.8,286046937.7,N
1579038495.6,286046938.4,N
1579038515.5,286046934.3,N
1579038535.3,286046941.3,N
1579038555.1,286046945.0,N
1579038575.9,286046954.1,N
1579038595.7,286046969.7,N
1579038615.5,286046981.5,N
1579038635.4,286046996.7,N
1579038655.2,286047001.1,N
1579038675.1,286046993.1,N
1579038676.0,286046993.1,N
1579038695.8,286046994.6,N
1579038715.6,286046997.7,N
1579038735.5,286047001.3,N
1579038755.3,286047003.6,N
1579038775.2,286047003.4,N
1579038795.9,286047014.2,N
1579038815.7,286047015.1,N
1579038835.6,286047010.4,N
1579038855.4,286047013.6,N
1579038875.2,286047018.0,N
1579038895.1,286047023.3,N
1579038896.0,286047023.3,N
1579038915.8,286047020.5,N
1579038935.7,286047027.1,N
1579038955.5,286047027.0,N
1579038975.3,286047034.0,N
1579038995.2,286047035.0,N
1579039015.0,286047041.2,N
1579039015.9,286047041.2,N
1579039035.7,286047044.1,N
1579039055.6,286047044.7,N
1579039075.4,286047052.1,N
1579039095.3,286047050.2,N
1579039115.1,286047046.4,N
1579039116.0,286047046.4,N
1579039135.8,286047046.9,N
1579039155.7,286047043.7,N
1579039175.5,286047043.9,N
1579039195.3,286047044.3,N
